KK7MLS-13 Weather Reports


time (UTC)temp
F
wind
direction
speed
knots
gust
knots
rain 1hr
in
rain 24hr
in
rain mn
in
humidity
%
barometer
mb
20260503185015 85 104 0.0 0.9 0.00 0.00 0.00 38 1011.2
20260503184512 84 277 0.0 0.0 0.00 0.00 0.00 41 1011.2
20260503184008 83 231 0.0 0.0 0.00 0.00 0.00 41 1011.5
20260503183505 83 274 0.0 0.9 0.00 0.00 0.00 40 1011.3
20260503183001 84 240 0.9 0.9 0.00 0.00 0.00 40 1011.6
20260503182500 83 358 0.0 0.9 0.00 0.00 0.00 40 1011.5
20260503181958 82 232 0.0 1.7 0.00 0.00 0.00 40 1011.6
20260503181455 81 224 0.9 0.9 0.00 0.00 0.00 41 1011.6
20260503180950 80 239 0.0 0.9 0.00 0.00 0.00 43 1011.6
20260503180449 79 248 0.0 0.9 0.00 0.00 0.00 44 1011.8
20260503175945 80 248 0.9 0.9 0.00 0.00 0.00 41 1011.9
20260503175443 80 256 0.0 0.0 0.00 0.00 0.00 45 1011.9
20260503174939 79 260 0.9 0.9 0.00 0.00 0.00 44 1011.8
20260503174438 78 44 0.0 0.9 0.00 0.00 0.00 48 1011.9
20260503173938 77 269 0.0 1.7 0.00 0.00 0.00 45 1012.0
20260503173434 78 274 0.0 0.9 0.00 0.00 0.00 47 1012.0
20260503172931 77 241 0.0 0.9 0.00 0.00 0.00 48 1012.0
20260503172428 75 267 0.0 0.0 0.00 0.00 0.00 49 1012.0
20260503171924 75 267 0.0 0.9 0.00 0.00 0.00 50 1012.0
20260503171421 74 287 0.0 0.9 0.00 0.00 0.00 51 1011.9
20260503170919 74 60 0.0 1.7 0.00 0.00 0.00 51 1012.0
20260503170415 74 27 0.0 0.9 0.00 0.00 0.00 53 1012.1
20260503150807 62 99 0.0 0.0 0.00 0.00 0.00 79 1012.6
20260503150303 60 98 0.0 0.0 0.00 0.00 0.00 85 1012.5
20260503140228 54 347 0.0 0.0 0.00 0.00 0.00 90 1012.3
20260503131157 53 339 0.0 0.0 0.00 0.00 0.00 91 1012.0
20260503130655 53 339 0.0 0.0 0.00 0.00 0.00 91 1012.0
20260503130152 53 340 0.0 0.0 0.00 0.00 0.00 91 1012.0
20260503120117 54 2 0.0 0.0 0.00 0.00 0.00 89 1012.1
20260503110545 55 24 0.0 0.0 0.00 0.00 0.00 89 1012.3
20260503090432 57 24 0.0 0.0 0.00 0.00 0.00 89 1012.8
20260503081358 57 24 0.0 0.0 0.00 0.00 0.00 88 1012.7
20260503080855 57 24 0.0 0.0 0.00 0.00 0.00 88 1012.7
20260503080352 57 24 0.0 0.0 0.00 0.00 0.00 88 1012.8
20260503072828 57 24 0.0 0.0 0.00 0.00 0.00 87 1012.7
20260503072325 57 24 0.0 0.0 0.00 0.00 0.00 86 1012.8
20260503071821 57 25 0.0 0.0 0.00 0.00 0.00 86 1012.8
20260503071319 57 24 0.0 0.0 0.00 0.00 0.00 86 1012.7
20260503070815 58 24 0.0 0.0 0.00 0.00 0.00 86 1012.7
20260503070313 58 24 0.0 0.0 0.00 0.00 0.00 86 1012.9
20260503060244 59 91 0.0 0.0 0.00 0.01 0.01 83 1013.3
20260503054731 60 92 0.0 0.0 0.00 0.01 0.01 81 1013.0
20260503054228 60 91 0.0 0.0 0.00 0.01 0.01 81 1013.0
20260503053726 60 164 0.0 0.0 0.00 0.01 0.01 80 1012.9
20260503053225 61 164 0.0 0.0 0.00 0.01 0.01 79 1012.7
20260503052720 61 97 0.0 0.0 0.00 0.01 0.01 78 1012.8
20260503052217 61 300 0.0 0.0 0.00 0.01 0.01 77 1012.6
20260503051712 62 298 0.0 0.0 0.00 0.01 0.01 77 1012.7
20260503051210 62 14 0.0 0.0 0.00 0.01 0.01 76 1012.8
20260503050707 62 297 0.0 0.0 0.00 0.01 0.01 75 1012.8
20260503050203 63 359 0.0 0.9 0.00 0.01 0.01 75 1012.8
20260503045701 63 358 0.0 0.0 0.00 0.01 0.01 74 1012.9
20260503045158 63 72 0.0 0.0 0.00 0.01 0.01 74 1012.9
20260503044654 63 72 0.0 0.0 0.00 0.01 0.01 73 1013.3
20260503044152 63 65 0.0 0.9 0.00 0.01 0.01 73 1012.9
20260503043649 63 286 0.0 0.0 0.00 0.01 0.01 73 1012.7
20260503043146 63 279 0.0 0.9 0.00 0.01 0.01 73 1012.7
20260503042642 63 283 0.0 0.9 0.00 0.01 0.01 73 1012.5
20260503042138 62 172 0.0 1.7 0.00 0.01 0.01 74 1012.5
20260503041635 62 308 0.0 0.0 0.00 0.01 0.01 76 1012.6
20260503041133 61 22 0.0 0.0 0.00 0.01 0.01 76 1012.8
20260503040630 62 19 0.0 0.0 0.00 0.01 0.01 78 1012.6
20260503040127 62 19 0.0 0.0 0.00 0.01 0.01 77 1012.8
20260503035623 62 19 0.0 0.0 0.00 0.01 0.01 77 1012.8
20260503035121 62 19 0.0 0.0 0.00 0.01 0.01 77 1012.7
20260503034619 62 19 0.0 0.0 0.00 0.01 0.01 77 1012.9
20260503034116 62 24 0.0 0.0 0.00 0.01 0.01 76 1012.8
20260503033613 62 24 0.0 0.0 0.00 0.01 0.01 76 1012.8
20260503033111 63 24 0.0 0.0 0.00 0.01 0.01 76 1012.7
20260503032609 63 24 0.0 0.0 0.00 0.01 0.01 75 1012.5
20260503032107 63 24 0.0 0.0 0.00 0.01 0.01 74 1012.4
20260503031604 64 34 0.0 0.0 0.00 0.01 0.01 74 1012.6
20260503031101 64 15 0.0 0.0 0.00 0.01 0.01 73 1012.3
20260503030557 64 16 0.0 0.0 0.00 0.01 0.01 73 1012.1
20260503030054 64 31 0.0 0.9 0.00 0.01 0.01 72 1012.5
20260503025551 64 327 0.0 0.0 0.00 0.01 0.01 71 1012.7
20260503025049 64 13 0.0 0.9 0.00 0.01 0.01 71 1012.3
20260503024544 64 291 0.0 0.0 0.00 0.01 0.01 71 1012.7
20260503024042 64 291 0.0 0.0 0.00 0.01 0.01 71 1012.5
20260503023538 65 270 0.0 1.7 0.00 0.01 0.01 70 1012.8
20260503023036 65 212 0.0 0.9 0.00 0.01 0.01 70 1013.0
20260503022532 65 286 0.0 1.7 0.00 0.01 0.01 70 1013.0
20260503022027 65 299 1.7 1.7 0.00 0.01 0.01 69 1013.0
20260503021524 66 47 0.9 2.6 0.00 0.01 0.01 69 1013.0
20260503021021 66 345 0.0 0.9 0.00 0.01 0.01 68 1012.9
20260503020518 67 292 0.0 1.7 0.00 0.01 0.01 67 1013.0
20260503020015 68 110 1.7 1.7 0.00 0.01 0.01 65 1013.0
20260503015511 68 60 0.9 0.9 0.00 0.01 0.01 64 1012.7
20260503015008 68 274 0.9 0.9 0.00 0.01 0.01 63 1012.2
20260503014504 68 36 0.0 0.9 0.00 0.01 0.01 63 1012.1
20260503014003 68 348 0.0 0.9 0.00 0.01 0.01 62 1012.1
20260503013459 69 262 0.0 0.0 0.00 0.01 0.01 63 1012.0
20260503012956 69 173 0.0 0.9 0.00 0.01 0.01 63 1012.0
20260503012455 69 36 0.0 1.7 0.00 0.01 0.01 63 1012.0
20260503011950 69 314 0.0 0.0 0.00 0.01 0.01 63 1011.9
20260503011447 69 274 1.7 1.7 0.00 0.01 0.01 61 1011.9
20260503010944 69 8 0.0 0.9 0.00 0.01 0.01 62 1011.9
20260503010441 71 282 0.0 1.7 0.00 0.01 0.01 59 1011.9
20260503005938 71 289 0.9 0.9 0.00 0.01 0.01 59 1011.8
20260503005436 72 266 0.0 0.9 0.00 0.01 0.01 59 1011.9
20260503004932 72 243 0.0 0.0 0.00 0.01 0.01 57 1011.9
20260503004429 72 271 0.0 0.0 0.00 0.01 0.01 59 1011.9
20260503003927 73 276 0.9 1.7 0.00 0.01 0.01 55 1011.9
20260503003423 73 297 0.0 1.7 0.00 0.01 0.01 56 1012.0
20260503002921 73 200 0.9 0.9 0.00 0.01 0.01 55 1011.8
20260503002418 73 279 0.9 1.7 0.00 0.01 0.01 54 1011.9
20260503001914 73 289 0.0 0.9 0.00 0.01 0.01 56 1011.9
20260503001410 73 268 0.0 1.7 0.00 0.01 0.01 54 1011.7
20260503000908 74 310 1.7 1.7 0.00 0.01 0.01 53 1011.9
20260503000407 74 269 0.9 2.6 0.00 0.01 0.01 52 1012.0
20260502235902 74 285 0.0 1.7 0.00 0.01 0.01 54 1011.9
20260502235359 75 184 0.9 0.9 0.00 0.01 0.01 51 1011.9
20260502234856 74 279 0.0 0.9 0.00 0.01 0.01 52 1012.1
20260502234353 75 279 0.0 1.7 0.00 0.01 0.01 52 1011.9
20260502233850 75 264 0.9 0.9 0.00 0.01 0.01 51 1012.2
20260502233345 75 230 0.0 1.7 0.00 0.01 0.01 52 1012.1
20260502232843 75 270 0.0 2.6 0.00 0.01 0.01 51 1012.1
20260502232339 77 203 0.0 2.6 0.00 0.01 0.01 50 1012.2
20260502231835 77 359 0.0 1.7 0.00 0.01 0.01 48 1012.3
20260502231334 76 154 1.7 1.7 0.00 0.01 0.01 48 1012.3
20260502230831 75 200 0.0 0.9 0.00 0.01 0.01 55 1012.3
20260502230329 75 285 0.0 0.9 0.00 0.01 0.01 50 1012.3
20260502225826 75 276 0.0 0.0 0.00 0.01 0.01 49 1012.4
20260502225323 75 275 0.9 0.9 0.00 0.01 0.01 51 1012.5
20260502224820 74 212 0.0 1.7 0.00 0.01 0.01 51 1012.7
20260502224315 73 244 0.9 1.7 0.00 0.01 0.01 52 1012.7
20260502223813 74 253 0.9 1.7 0.00 0.01 0.01 52 1012.8
20260502223311 75 281 0.9 1.7 0.00 0.01 0.01 49 1012.8
20260502222809 76 278 0.0 1.7 0.00 0.01 0.01 49 1013.0
20260502222306 75 301 0.0 0.0 0.00 0.01 0.01 55 1013.1
20260502221801 75 337 0.9 1.7 0.00 0.01 0.01 50 1013.1
20260502221258 73 262 0.9 1.7 0.00 0.01 0.01 52 1013.1
20260502220755 71 250 0.0 1.7 0.00 0.01 0.01 59 1013.3
20260502220251 71 282 0.9 1.7 0.00 0.01 0.01 54 1013.4
20260502215747 71 260 0.9 1.7 0.00 0.01 0.01 53 1013.5
20260502215245 70 289 0.9 1.7 0.00 0.01 0.01 54 1013.3
20260502214742 70 225 0.9 1.7 0.00 0.01 0.01 57 1013.5
20260502214239 70 294 0.0 0.9 0.00 0.01 0.01 58 1013.7
20260502213736 70 269 0.0 1.7 0.00 0.01 0.01 58 1013.6
20260502213233 71 280 0.9 1.7 0.00 0.01 0.01 54 1013.8
20260502212732 71 269 0.0 1.7 0.00 0.01 0.01 56 1013.8
20260502212230 71 22 0.0 1.7 0.00 0.01 0.01 55 1014.1
20260502211726 69 249 0.0 1.7 0.00 0.01 0.01 61 1014.0
20260502211223 69 208 0.9 1.7 0.00 0.01 0.01 57 1014.2
20260502210720 67 250 0.0 0.9 0.00 0.01 0.01 60 1014.0
20260502210217 67 241 0.0 1.7 0.00 0.01 0.01 62 1014.2
20260502205714 66 22 0.9 1.7 0.00 0.01 0.01 60 1014.3
20260502205210 67 111 0.9 1.7 0.00 0.01 0.01 61 1014.4
20260502204707 67 0 0.0 1.7 0.00 0.01 0.01 59 1014.5
20260502204206 66 261 0.0 1.7 0.00 0.01 0.01 64 1014.7
20260502203703 66 171 0.9 1.7 0.00 0.01 0.01 61 1014.6
20260502203201 65 35 0.0 0.9 0.00 0.01 0.01 64 1014.7
20260502202700 66 292 1.7 2.6 0.00 0.01 0.01 60 1014.6
20260502202159 65 180 0.0 1.7 0.00 0.01 0.01 66 1015.1
20260502201655 65 236 1.7 1.7 0.00 0.01 0.01 66 1014.7
20260502201152 64 167 0.9 1.7 0.00 0.01 0.01 66 1015.0
20260502200648 65 238 1.7 3.5 0.00 0.01 0.01 65 1015.2
20260502200144 65 283 0.0 0.9 0.00 0.01 0.01 66 1015.2
20260502195643 63 279 1.7 2.6 0.00 0.01 0.01 66 1015.2
20260502195139 62 225 0.9 0.9 0.00 0.01 0.01 69 1015.1
20260502194635 63 253 0.9 1.7 0.00 0.01 0.01 65 1015.2
20260502194132 62 264 0.0 0.0 0.00 0.01 0.01 69 1015.4
20260502193629 61 163 0.0 0.9 0.00 0.01 0.01 72 1015.5
20260502193126 62 240 0.9 1.7 0.00 0.01 0.01 70 1015.3
20260502192621 61 100 0.9 0.9 0.00 0.01 0.01 71 1015.4
20260502192119 60 178 0.9 0.9 0.00 0.01 0.01 72 1015.5
20260502191615 59 297 0.0 0.9 0.00 0.01 0.01 74 1015.8
20260502191113 58 88 0.0 0.9 0.00 0.01 0.01 75 1015.8
20260502190611 58 234 0.9 1.7 0.00 0.01 0.01 73 1016.2
20260502190108 59 192 0.0 1.7 0.00 0.01 0.01 73 1016.3
20260502185602 58 237 0.9 0.9 0.00 0.01 0.01 75 1016.1
20260502185059 58 223 0.0 0.9 0.00 0.01 0.01 75 1016.0